Weather reports worldwide

Advertisment
Bastia, France (7790): temperature & dewpoint: 10.01.2021 06:00:00 - 16.01.2021 06:00:00 (CET)Bastia, France (7790): temperature 5cm: 10.01.2021 06:00:00 - 16.01.2021 06:00:00 (CET)Bastia, France (7790): temperature -20cm & temperature -100cm: 10.01.2021 06:00:00 - 16.01.2021 06:00:00 (CET)Bastia, France (7790): wind speed & gusts: 10.01.2021 06:00:00 - 16.01.2021 06:00:00 (CET)Bastia, France (7790): wind direction: 10.01.2021 06:00:00 - 16.01.2021 06:00:00 (CET)Bastia, France (7790): reduced air pressure: 10.01.2021 06:00:00 - 16.01.2021 06:00:00 (CET)Bastia, France (7790): visibility: 10.01.2021 06:00:00 - 16.01.2021 06:00:00 (CET)Bastia, France (7790): sunshine duration: 10.01.2021 06:00:00 - 16.01.2021 06:00:00 (CET)Bastia, France (7790): precipitation: 10.01.2021 06:00:00 - 16.01.2021 06:00:00 (CET)
Date & Time tt [°C] td [°C] tt 5cm [°C] tt -20cm [°C] tt -100cm [°C] ff [km/h] ff [kn] fx [km/h] fx [kn] dd ppp [hPa] vv [km] sd [min] rr [mm]
16.01.2021 06:00:00 - - - - - - - - - - - - - -
16.01.2021 05:00:00 6,9 2,2 5,0 9,6 11,5 8 5 14 8 WNW 1018,9 60 0 0,0
16.01.2021 04:00:00 7,3 2,0 5,9 9,6 11,4 9 5 21 11 NNE 1018,4 60 0 0,0
16.01.2021 03:00:00 7,9 1,5 5,5 9,6 11,4 12 7 20 11 NE 1018,1 60 0 0,0
16.01.2021 02:00:00 7,6 1,2 2,6 9,6 11,4 16 9 26 14 NE 1017,6 59 0 0,0
16.01.2021 01:00:00 7,5 2,0 3,8 9,6 11,4 8 4 21 12 NE 1017,0 60 0 0,0
16.01.2021 00:00:00 7,7 2,6 4,8 9,6 11,5 10 5 23 13 N 1016,7 60 0 0,0
15.01.2021 23:00:00 8,7 4,1 6,4 9,6 11,4 7 4 16 9 NW 1016,3 58 0 0,0
15.01.2021 22:00:00 9,1 4,1 6,2 9,6 11,5 10 5 19 10 NNE 1015,7 58 0 0,0
15.01.2021 21:00:00 7,2 5,5 3,9 9,6 11,4 7 4 15 8 W 1015,0 12 0 0,0
15.01.2021 20:00:00 6,6 5,1 1,2 9,6 11,4 10 6 15 8 NW 1014,5 13 0 0,0
15.01.2021 19:00:00 6,5 5,1 2,1 9,6 11,5 2 1 10 5 WNW 1014,1 14 0 0,0
15.01.2021 18:00:00 7,4 5,0 3,1 9,6 11,5 4 2 15 8 W 1013,5 16 0 0,0
15.01.2021 17:00:00 9,4 5,9 7,7 9,5 11,5 12 6 23 12 NW 1013,4 29 7 0,0
15.01.2021 16:00:00 11,0 6,1 9,4 9,5 11,5 11 6 20 11 NW 1013,0 46 21 0,0
15.01.2021 15:00:00 10,5 6,3 9,5 9,5 11,5 13 7 24 13 NW 1012,9 52 0 0,0
15.01.2021 14:00:00 10,3 6,4 8,9 9,5 11,5 15 8 24 13 WNW 1012,8 60 0 0,0
15.01.2021 13:00:00 9,9 6,6 9,1 9,4 11,5 16 9 29 15 NNW 1013,2 60 0 0,0
15.01.2021 12:00:00 9,6 7,4 9,5 9,4 11,5 7 4 16 9 WNW 1013,2 44 0 0,0
15.01.2021 11:00:00 9,6 7,5 8,8 9,4 11,5 10 6 19 10 W 1013,6 20 5 0,8
15.01.2021 10:00:00 8,8 7,1 8,1 9,4 11,4 14 8 35 19 WNW 1013,3 28 0 0,4
15.01.2021 09:00:00 8,7 7,8 7,9 9,4 11,4 26 14 41 22 NW 1012,5 2,6 0 0,0
15.01.2021 08:00:00 8,7 8,1 7,9 9,4 11,5 3 2 13 7 WNW 1011,1 22 0 0,0
15.01.2021 07:00:00 9,3 8,4 8,2 9,4 11,5 9 5 15 8 NNW 1010,8 4,5 0 0,0
15.01.2021 06:00:00 8,9 7,7 8,1 9,4 11,5 10 5 13 7 WSW 1009,8 8 0 0,0
15.01.2021 05:00:00 9,2 6,8 7,1 9,4 11,5 5 3 13 7 SW 1009,5 37 0 0,0
15.01.2021 04:00:00 8,4 6,4 7,2 9,3 11,5 5 3 13 7 NE 1010,0 46 0 0,0
15.01.2021 03:00:00 9,2 6,3 6,5 9,3 11,5 8 5 20 11 SSW 1010,3 59 0 0,0
15.01.2021 02:00:00 9,5 6,8 8,8 9,2 11,5 9 5 11 6 SSW 1010,6 55 0 0,0
15.01.2021 01:00:00 9,9 7,3 8,5 9,2 11,5 7 4 10 6 S 1011,0 51 0 0,0
15.01.2021 00:00:00 9,4 7,7 8,4 9,2 11,5 4 2 9 5 SW 1011,0 36 0 0,0
14.01.2021 23:00:00 10,1 7,5 7,7 9,1 11,5 5 3 11 6 WSW 1011,7 32 0 0,0
14.01.2021 22:00:00 10,4 7,5 8,3 9,1 11,5 3 2 20 11 ESE 1011,4 43 0 0,0
14.01.2021 21:00:00 11,6 7,7 10,3 9,0 11,5 12 7 23 13 SSE 1010,5 48 0 0,0
14.01.2021 20:00:00 11,6 8,6 10,3 9,0 11,5 11 6 18 10 SSE 1010,4 42 0 0,0
14.01.2021 19:00:00 11,2 8,6 10,1 8,9 11,5 7 4 12 6 SSE 1010,0 30 0 0,0
14.01.2021 18:00:00 11,8 8,6 10,6 8,8 11,5 4 2 11 6 SSE 1009,8 34 0 0,0
14.01.2021 17:00:00 12,5 9,0 11,9 8,8 11,5 7 4 11 6 SSE 1009,7 55 0 0,0
14.01.2021 16:00:00 13,2 8,9 13,9 8,7 11,5 8 4 15 8 E 1009,6 51 41 0,0
14.01.2021 15:00:00 14,1 8,3 15,3 8,7 11,5 10 5 18 10 ESE 1009,1 54 48 0,0
14.01.2021 14:00:00 14,5 8,2 20,6 8,7 11,5 10 5 19 10 ESE 1009,0 45 60 0,0
14.01.2021 13:00:00 14,4 8,3 20,2 8,7 11,5 13 7 22 12 SE 1009,3 52 60 0,0
14.01.2021 12:00:00 15,0 8,7 16,6 8,7 11,5 11 6 21 11 SE 1009,8 31 60 0,0
14.01.2021 11:00:00 12,2 5,1 12,7 8,8 11,5 9 5 19 10 SSW 1010,6 50 60 0,0
14.01.2021 10:00:00 10,1 4,0 8,6 8,8 11,5 13 7 20 11 SSW 1011,4 51 60 0,0
14.01.2021 09:00:00 7,8 2,9 3,8 8,8 11,5 12 6 26 14 SW 1011,0 42 47 0,0
14.01.2021 08:00:00 5,1 2,1 1,8 8,9 11,6 13 7 20 11 SSW 1011,3 57 0 0,0
14.01.2021 07:00:00 4,1 1,3 -0,1 8,9 11,5 10 5 16 9 SSW 1011,9 60 0 0,0
14.01.2021 06:00:00 3,4 1,4 0,4 8,9 11,6 9 5 14 8 SW 1011,8 58 0 0,0
14.01.2021 05:00:00 3,3 1,7 0,7 8,9 11,6 9 5 14 7 SW 1012,1 60 0 0,0
14.01.2021 04:00:00 4,1 1,5 0,8 8,9 11,5 6 3 15 8 SW 1012,7 58 0 0,0
14.01.2021 03:00:00 6,4 2,5 3,1 9,0 11,6 14 8 22 12 SSW 1012,9 60 0 0,0
14.01.2021 02:00:00 4,6 2,5 1,6 9,0 11,6 10 5 17 9 SSW 1014,1 60 0 0,0
14.01.2021 01:00:00 5,3 2,5 2,9 9,0 11,6 8 5 18 10 SSW 1014,5 60 0 0,0
14.01.2021 00:00:00 5,6 2,8 2,9 9,0 11,6 10 5 24 13 S 1015,0 59 0 0,0
13.01.2021 23:00:00 6,5 3,5 3,0 8,9 11,6 10 6 17 9 SSW 1015,3 57 0 0,0
13.01.2021 22:00:00 5,8 3,3 3,3 8,9 11,6 10 5 21 11 S 1015,5 36 0 0,0
13.01.2021 21:00:00 6,5 4,2 4,0 8,9 11,6 13 7 19 10 S 1015,4 46 0 0,0
13.01.2021 20:00:00 5,9 4,1 2,4 8,9 11,6 12 7 18 10 SSW 1015,4 39 0 0,0
13.01.2021 19:00:00 6,1 3,9 2,0 8,8 11,6 8 4 15 8 S 1015,6 39 0 0,0
13.01.2021 18:00:00 6,9 4,4 1,7 8,8 11,6 5 3 13 7 SW 1015,6 16 0 0,0
13.01.2021 17:00:00 10,1 6,1 7,9 8,7 11,6 9 5 12 6 SE 1015,1 46 43 0,0
13.01.2021 16:00:00 12,9 7,1 15,7 8,7 11,6 8 4 14 8 SE 1015,0 36 60 0,0
13.01.2021 15:00:00 13,6 6,9 17,7 8,7 11,6 6 4 22 12 SE 1014,9 40 60 0,0
13.01.2021 14:00:00 13,7 6,5 19,4 8,7 11,6 14 8 22 12 SE 1014,3 51 60 0,0
13.01.2021 13:00:00 13,8 5,9 20,4 8,7 11,6 12 6 18 10 SE 1015,1 18 60 0,0
13.01.2021 12:00:00 13,2 2,1 15,6 8,8 11,6 6 4 18 10 SSW 1015,7 40 60 0,0
13.01.2021 11:00:00 11,1 1,3 11,5 8,8 11,6 11 6 24 13 SSW 1016,2 54 60 0,0
13.01.2021 10:00:00 8,5 0,7 6,6 8,9 11,7 12 6 26 14 SSW 1015,9 42 60 0,0
13.01.2021 09:00:00 5,2 -0,8 2,2 8,9 11,6 15 8 22 12 SSW 1015,5 60 46 0,0
13.01.2021 08:00:00 3,5 -1,3 1,6 8,9 11,6 14 7 21 12 SSW 1014,6 59 0 0,0
13.01.2021 07:00:00 4,5 -1,3 2,7 8,9 11,7 11 6 29 16 SW 1014,3 60 0 0,0
13.01.2021 06:00:00 4,6 -1,0 2,3 9,0 11,6 16 9 30 16 SSW 1014,0 60 0 0,0
13.01.2021 05:00:00 3,8 -0,8 1,4 9,0 11,7 18 10 28 15 SSW 1013,9 60 0 0,0
13.01.2021 04:00:00 2,9 -0,7 1,6 9,0 11,6 13 7 23 13 SSW 1013,7 60 0 0,0
13.01.2021 03:00:00 4,5 -0,5 0,5 9,1 11,7 15 8 29 16 SW 1013,6 60 0 0,0
13.01.2021 02:00:00 2,7 -0,4 0,5 9,1 11,6 9 5 19 10 SSW 1014,0 57 0 0,0
13.01.2021 01:00:00 3,4 -0,3 0,5 9,1 11,6 11 6 19 10 SW 1014,1 57 0 0,0
13.01.2021 00:00:00 2,8 0,0 -0,1 9,1 11,7 9 5 14 7 SSW 1014,5 47 0 0,0
12.01.2021 23:00:00 3,2 0,4 -0,9 9,1 11,7 8 5 12 7 SSW 1014,4 48 0 0,0
12.01.2021 22:00:00 3,5 0,4 0,5 9,1 11,7 3 2 12 7 SSW 1014,9 48 0 0,0
12.01.2021 21:00:00 4,2 0,7 1,1 9,1 11,7 7 4 15 8 SSW 1014,6 46 0 0,0
12.01.2021 20:00:00 3,3 0,7 0,2 9,1 11,7 9 5 14 8 SSW 1014,5 46 0 0,0
12.01.2021 19:00:00 3,7 0,7 -0,2 9,1 11,7 8 4 11 6 SSW 1014,7 19 0 0,0
12.01.2021 18:00:00 5,7 1,6 -0,9 9,1 11,7 5 3 9 5 W 1014,9 19 0 0,0
12.01.2021 17:00:00 8,6 1,5 2,9 9,0 11,7 4 2 16 8 SW 1015,1 60 36 0,0
12.01.2021 16:00:00 10,6 1,4 12,7 9,0 11,7 8 5 20 11 SSE 1015,2 55 60 0,0
12.01.2021 15:00:00 12,4 0,2 16,1 9,0 11,7 7 4 26 14 WSW 1015,2 44 60 0,0
12.01.2021 14:00:00 11,2 2,0 13,7 9,0 11,7 19 11 41 22 NW 1015,6 60 50 0,0
12.01.2021 13:00:00 11,4 -1,4 17,1 9,0 11,7 5 3 17 9 W 1016,1 51 53 0,0
12.01.2021 12:00:00 11,1 -1,0 14,1 9,0 11,7 10 6 30 16 SW 1016,9 45 60 0,0
12.01.2021 11:00:00 9,9 0,2 12,8 9,1 11,7 15 8 27 15 NNW 1017,8 60 60 0,0
12.01.2021 10:00:00 8,6 0,6 7,1 9,1 11,7 8 5 23 12 WSW 1017,4 46 58 0,0
12.01.2021 09:00:00 5,7 -1,5 4,5 9,1 11,7 15 8 26 14 SW 1017,1 41 21 0,0
12.01.2021 08:00:00 5,1 -1,6 4,3 9,1 11,7 15 8 22 12 SW 1016,8 55 0 0,0
12.01.2021 07:00:00 5,2 -1,5 4,4 9,1 11,7 13 7 20 11 SW 1016,8 56 0 0,0
12.01.2021 06:00:00 7,0 -1,7 5,2 9,2 11,7 13 7 25 13 WNW 1016,7 60 0 0,0
12.01.2021 05:00:00 6,7 -1,7 5,4 9,2 11,7 11 6 20 11 WNW 1016,7 60 0 0,0
12.01.2021 04:00:00 6,5 -1,4 5,0 9,2 11,7 12 6 19 10 WNW 1016,9 60 0 0,0
12.01.2021 03:00:00 6,0 -1,6 4,6 9,2 11,7 11 6 21 11 W 1017,3 60 0 0,0
12.01.2021 02:00:00 5,7 -1,5 2,4 9,2 11,7 11 6 22 12 WNW 1017,4 54 0 0,0
12.01.2021 01:00:00 5,2 -1,5 2,8 9,2 11,7 13 7 26 14 NW 1017,3 47 0 0,0
12.01.2021 00:00:00 5,8 -1,4 4,1 9,3 11,7 17 9 24 13 NW 1017,5 47 0 0,0
11.01.2021 23:00:00 6,5 -0,3 5,4 9,2 11,7 17 9 28 15 NNW 1017,7 52 0 0,0
11.01.2021 22:00:00 6,7 0,1 5,3 9,3 11,7 14 8 27 14 N 1017,6 43 0 0,0
11.01.2021 21:00:00 6,4 -0,1 -0,2 9,2 11,7 13 7 22 12 NW 1017,5 51 0 0,0
11.01.2021 20:00:00 4,9 -1,3 0,1 9,3 11,7 8 4 12 7 WNW 1017,0 55 0 0,0
11.01.2021 19:00:00 5,6 -1,1 2,6 9,2 11,7 5 3 16 8 NW 1016,8 53 0 0,0
11.01.2021 18:00:00 6,4 -1,0 4,2 9,2 11,7 8 4 13 7 WNW 1016,5 57 0 0,0
11.01.2021 17:00:00 7,1 -1,1 6,4 9,2 11,7 10 5 21 11 WNW 1016,6 57 40 0,0
11.01.2021 16:00:00 7,6 -1,1 7,5 9,2 11,7 16 8 31 17 N 1016,7 54 2 0,0
11.01.2021 15:00:00 8,2 -0,6 8,3 9,2 11,7 19 10 36 19 NNW 1016,4 46 31 0,0
11.01.2021 14:00:00 7,7 -1,3 8,4 9,2 11,7 21 12 32 17 N 1016,2 13 41 0,0
11.01.2021 13:00:00 8,9 0,3 9,2 9,2 11,7 19 11 29 15 N 1016,7 46 44 0,0
11.01.2021 12:00:00 7,9 0,6 7,5 9,3 11,8 16 9 26 14 N 1017,3 27 2 0,0
11.01.2021 11:00:00 7,7 -0,1 7,9 9,2 11,7 17 9 29 16 N 1017,7 47 0 0,0
11.01.2021 10:00:00 7,5 1,3 6,9 9,2 11,7 15 8 26 14 NNE 1017,3 50 0 0,0
11.01.2021 09:00:00 7,1 0,7 5,8 9,3 11,7 18 10 31 17 N 1016,4 51 0 0,0
11.01.2021 08:00:00 6,7 0,8 4,5 9,3 11,7 16 9 30 16 N 1015,5 50 0 0,0
11.01.2021 07:00:00 6,9 0,8 5,9 9,3 11,7 14 8 30 16 NNE 1015,1 49 0 0,0
11.01.2021 06:00:00 7,1 0,3 6,4 9,3 11,7 19 10 36 20 NNE 1014,7 50 0 0,0
11.01.2021 05:00:00 7,4 1,7 6,6 9,3 11,8 23 13 40 22 NE 1014,4 48 0 0,0
11.01.2021 04:00:00 7,6 1,4 6,4 9,3 11,7 24 13 37 20 NNE 1014,3 46 0 0,0
11.01.2021 03:00:00 7,4 1,0 6,0 9,4 11,8 19 11 31 17 NNE 1014,8 50 0 0,0
11.01.2021 02:00:00 7,4 1,7 6,4 9,4 11,8 17 9 33 18 N 1014,6 46 0 0,0
11.01.2021 01:00:00 7,6 2,3 6,8 9,3 11,7 19 11 31 17 NNE 1014,3 42 0 0,0
11.01.2021 00:00:00 7,8 2,5 6,8 9,4 11,8 20 11 35 19 NNE 1014,2 40 0 0,0
10.01.2021 23:00:00 7,9 3,0 6,9 9,4 11,8 18 10 32 17 N 1014,0 46 0 0,0
10.01.2021 22:00:00 8,0 3,8 6,1 9,3 11,8 16 9 24 13 N 1013,8 53 0 0,0
10.01.2021 21:00:00 7,2 3,1 6,2 9,3 11,8 9 5 24 13 NW 1013,4 46 0 0,0
10.01.2021 20:00:00 7,4 4,0 6,6 9,4 11,8 16 9 34 18 NW 1013,2 50 0 0,0
10.01.2021 19:00:00 8,0 4,0 6,5 9,4 11,8 23 13 37 20 N 1012,3 57 0 0,0
10.01.2021 18:00:00 7,7 4,8 6,5 9,4 11,8 22 12 32 17 N 1011,9 20 0 0,2
10.01.2021 17:00:00 7,5 6,0 6,9 9,3 11,8 16 8 34 19 N 1011,6 20 0 0,0
10.01.2021 16:00:00 7,5 6,1 7,0 9,3 11,8 27 15 41 22 NNW 1011,4 15 0 0,0
10.01.2021 15:00:00 7,7 6,2 7,3 9,3 11,8 23 13 38 21 NNW 1010,9 38 0 0,0
10.01.2021 14:00:00 7,9 5,9 7,2 9,3 11,8 26 14 42 23 NNW 1010,6 35 0 0,0
10.01.2021 13:00:00 8,0 6,0 7,1 9,3 11,8 22 12 39 21 N 1010,7 38 0 0,0
10.01.2021 12:00:00 8,0 5,8 7,1 9,3 11,8 20 11 30 16 N 1011,2 55 0 0,0
10.01.2021 11:00:00 7,8 6,4 7,0 9,3 11,8 20 11 30 16 NNW 1011,8 19 0 0,0
10.01.2021 10:00:00 7,5 6,4 6,9 9,3 11,9 14 8 28 15 NW 1011,5 8 0 0,2
10.01.2021 09:00:00 7,9 5,7 6,9 9,3 11,9 19 10 31 17 N 1010,9 37 0 0,0
10.01.2021 08:00:00 7,7 6,6 7,1 9,3 11,9 10 5 19 11 NW 1010,4 14 0 0,4
10.01.2021 07:00:00 8,2 6,5 7,1 9,3 11,9 10 6 20 11 N 1010,4 31 0 0,0
10.01.2021 06:00:00 8,0 6,3 7,1 9,3 11,9 11 6 24 13 NNE 1010,4 38 0 0,2

tt = temperature
td = dewpoint
tt 5cm = temperature 5cm
tt -20cm = temperature -20cm
tt -100cm = temperature -100cm
ff = wind speed
fx = gusts
dd = wind direction
ppp = reduced air pressure
vv = visibility
sd = sunshine duration
rr = precipitation

Next stations